Regional Weather Roundup
Issued by NWS Green Bay, WI

Home | Current Version | Previous Version | Text Only | Print | Product List | Glossary On
Versions: 1 2 3 4 5 6 7 8 9 10 11 12 13 14 15 16 17 18 19 20 21 22 23 24 25 26 27 28 29 30 31 32 33 34 35 36 37 38 39 40 41 42 43 44 45 46 47 48 49 50
000
ASUS43 KGRB 110411
RWRGRB

NORTH-CENTRAL AND NORTHEAST WISCONSIN REGIONAL WEATHER ROUNDUP
NATIONAL WEATHER SERVICE GREEN BAY WI
1000 PM CST SAT DEC 10 2016

WIZ005-009-010>012-018-019-110500-
NORTH CENTRAL WISCONSIN

CITY           SKY/WX    TMP DP  RH WIND       PRES   REMARKS
IRONWOOD       PTCLDY    -5  -9  83 E3        30.25F
MANITOWISH WTR CLOUDY    -1  -4  87 CALM      30.20S
ARBOR VITAE    CLOUDY     5   1  83 CALM      30.20F
EAGLE RIVER    CLOUDY     3  -1  81 CALM      30.20F
LAND O LAKES   CLOUDY    -2  -5  84 CALM      30.22F
RHINELANDER    CLOUDY     9   3  77 CALM      30.21F
PHILLIPS       FLURRIES   8   4  82 CALM      30.20F
ANTIGO         CLOUDY    10   3  75 CALM      30.21F
TOMAHAWK       LGT SNOW   9   4  81 CALM      30.21F
MERRILL        LGT SNOW  10   6  81 CALM      30.23F
$$

WIZ013-073-110500-
NORTHEAST WISCONSIN

CITY           SKY/WX    TMP DP  RH WIND       PRES   REMARKS
IRON MOUNTAIN  CLOUDY     8   1  73 CALM      30.25S
MARINETTE        N/A     14   4  64 MISG        N/A
OCONTO         CLOUDY    14   8  77 CALM      30.32R
$$

WIZ017-030-035>037-045-110500-
CENTRAL WISCONSIN

CITY           SKY/WX    TMP DP  RH WIND       PRES   REMARKS
MEDFORD        LGT SNOW  10   6  85 E3        30.19F
WAUSAU         LGT SNOW  10   7  87 E7        30.23F FOG     WCI  -1
MOSINEE        LGT SNOW  12  10  92 E3        30.24F
MARSHFIELD     LGT SNOW  13   9  84 SE7       30.21F FOG     WCI   3
WISC RAPIDS    LGT SNOW  15  12  88 E5        30.26F FOG     WCI   8
STEVENS POINT  MIX PCPN  12  10  89 CALM      30.25F
WAUPACA        LGT SNOW  18  13  84 CALM      30.29S
SHAWANO        MIX PCPN  16   9  74 CALM      30.31R
CLINTONVILLE   LGT SNOW  18  12  79 CALM      30.29F
WAUTOMA        LGT SNOW  15  13  91 E5        30.28F FOG     WCI   8
$$

WIZ038-039-048-051-110500-
FOX VALLEY

CITY           SKY/WX    TMP DP  RH WIND       PRES   REMARKS
NWS GREEN BAY  LGT SNOW  19  12  74 SW3       30.31S
APPLETON       LGT SNOW  16  10  79 VRB5      30.27S WCI   9
OSHKOSH        LGT SNOW  17  14  88 SE3       30.29S FOG
FOND DU LAC    LGT SNOW  19  14  81 SE3       30.29S
$$

WIZ022-050-052-110500-
EAST CENTRAL WISCONSIN

CITY           SKY/WX    TMP DP  RH WIND       PRES   REMARKS
EPHRAIM        FAIR      17   7  67 W3        30.30S
WASHINGTON ISL CLOUDY    19   8  61 W6        30.30S
STURGEON BAY   CLOUDY    16  10  77 CALM      30.32S
MANITOWOC      LGT SNOW  18  14  86 MISG      30.33R FOG
SHEBOYGAN      LGT SNOW  18  14  84 CALM      30.30F FOG
$$

LMZ563-521-522-541>543-110500-
LAKESHORE

STATION/POSITION TIME  TEMP    WIND        PRES    VSBY  WAVE
                       AIR SEA DIR/SP/G                  HT/PER
                 (UTC) (F)     (DEG/KT/KT) (MB)    (MI)  (FT/S)
SHEBOYGAN LKSHOR 0400   19     230/  2/  3 1027.5F
KEWAUNEE LKSHORE 0348   18      CALM  /  4 1026.0F
ALGOMA MARINA    0351             CALM       N/A
NORTHPORT PIER   0340   17      CALM  /  3 1026.4S
SISTER BAY LKSHO 0350   19     220/  8/  9   N/A
CHAMBERS ISLAND  0340   17     230/  4/  8 1026.1S
MENOMINEE LKSHOR 0348   16     260/  4/  6 1026.1R
$$




USA.gov is the U.S. government's official web portal to all federal, state and local government web resources and services.